Location: Bremen
(53.0793°N, 8.8017°E)
Time: 21:48:25
(UTC+02:00)

Vanguard 2 Rocket - Pass Details

Date: 18 April 2024
Orbit: 556 x 3304 km, 32.9° (Epoch: 20 May)

Event Time Altitude Azimuth Distance (km) Brightness Sun altitude
Rises 05:09:06 0° 270° (W) 7,255 11.0 -10.1°
Reaches altitude 10° 05:16:04 10° 258° (WSW) 6,033 10.5 -9.2°
Maximum altitude 05:27:14 20° 220° (SW) 4,572 9.9 -7.8°
Drops below altitude 10° 05:36:04 10° 179° (S) 4,622 10.2 -6.6°
Sets 05:40:25 0° 164° (SSE) 5,163 10.6 -6.1°
